DL1NER Weather Reports


time (UTC)temp
C
wind
direction
speed
KPH
gust
KPH
rain 1hr
cm
rain 24hr
cm
rain mn
cm
humidity
%
barometer
mb
20260507094011 10 248 6.4 17.7 0.05 0.23 0.23 84 1013.4
20260507093010 10 206 6.4 17.7 0.05 0.23 0.23 84 1013.4
20260507092011 10 255 6.4 14.5 0.03 0.20 0.20 85 1013.3
20260507091011 10 254 4.8 11.3 0.05 0.20 0.20 85 1013.1
20260507090010 11 233 3.2 16.1 0.03 0.18 0.18 87 1013.0
20260507085010 11 202 6.4 17.7 0.05 0.18 0.18 85 1012.7
20260507084010 11 280 6.4 16.1 0.05 0.18 0.18 90 1012.6
20260507083010 10 235 8.0 17.7 0.05 0.18 0.18 89 1012.5
20260507082010 10 228 6.4 14.5 0.05 0.15 0.15 90 1012.4
20260507081010 10 283 3.2 11.3 0.05 0.15 0.15 90 1012.2
20260507080011 10 283 3.2 11.3 0.05 0.15 0.15 90 1012.2
20260507075009 10 261 3.2 8.0 0.05 0.15 0.15 89 1012.1
20260507074010 10 261 4.8 12.9 0.05 0.15 0.15 88 1012.0
20260507073009 10 252 3.2 9.7 0.05 0.13 0.13 88 1011.7
20260507072010 10 252 3.2 9.7 0.05 0.13 0.13 88 1011.7
20260507071010 10 234 4.8 12.9 0.05 0.13 0.13 88 1011.6
20260507070012 10 234 3.2 8.0 0.03 0.10 0.10 89 1011.5
20260507065011 10 250 4.8 12.9 0.03 0.10 0.10 88 1011.5
20260507064009 10 215 4.8 12.9 0.03 0.10 0.10 88 1011.4
20260507063011 10 209 3.2 11.3 0.00 0.08 0.08 88 1011.3
20260507062010 10 244 4.8 11.3 0.00 0.08 0.08 88 1011.2
20260507061010 10 246 4.8 12.9 0.00 0.08 0.08 89 1011.1
20260507060010 10 248 3.2 11.3 0.00 0.08 0.08 89 1011.0
20260507055009 10 273 3.2 12.9 0.00 0.08 0.08 89 1010.8
20260507054010 10 223 3.2 14.5 0.00 0.08 0.08 89 1010.8
20260507053009 10 234 6.4 19.3 0.00 0.08 0.08 89 1010.7
20260507052010 10 194 3.2 14.5 0.00 0.08 0.08 89 1010.7
20260507051009 10 197 4.8 11.3 0.00 0.08 0.08 89 1010.5
20260507050010 10 196 1.6 8.0 0.00 0.08 0.08 89 1010.4
20260507045010 10 197 3.2 9.7 0.00 0.08 0.08 89 1010.3
20260507044009 10 202 3.2 8.0 0.00 0.08 0.08 89 1010.3
20260507043009 10 200 3.2 8.0 0.00 0.08 0.08 89 1010.2
20260507042010 10 200 1.6 8.0 0.00 0.08 0.08 89 1010.1
20260507041010 10 199 3.2 11.3 0.00 0.08 0.08 89 1009.9
20260507040010 10 201 1.6 9.7 0.00 0.08 0.08 89 1009.9
20260507035010 10 223 3.2 12.9 0.00 0.08 0.08 90 1009.8
20260507034008 10 208 3.2 9.7 0.00 0.08 0.08 90 1009.7
20260507033008 10 187 1.6 9.7 0.00 0.08 0.08 90 1009.6
20260507032008 10 213 1.6 6.4 0.00 0.08 0.08 90 1009.5
20260507031008 10 213 1.6 6.4 0.00 0.08 0.08 90 1009.5
20260507030009 10 213 1.6 8.0 0.00 0.08 0.08 90 1009.4
20260507025009 10 206 1.6 6.4 0.00 0.08 0.08 90 1009.4
20260507024009 10 202 3.2 6.4 0.00 0.08 0.08 90 1009.4
20260507023013 10 200 3.2 9.7 0.00 0.08 0.08 90 1009.3
20260507022013 10 211 3.2 9.7 0.00 0.08 0.08 90 1009.3
20260507021013 10 200 3.2 12.9 0.00 0.08 0.08 90 1009.2
20260507020013 10 222 3.2 9.7 0.03 0.08 0.08 90 1009.1
20260507015013 10 220 3.2 9.7 0.03 0.08 0.08 90 1009.1
20260507014013 10 206 3.2 9.7 0.03 0.08 0.08 90 1009.1
20260507013013 10 217 3.2 8.0 0.03 0.08 0.08 90 1008.9
20260507012013 10 223 3.2 9.7 0.03 0.08 0.08 90 1008.9
20260507011013 10 209 4.8 17.7 0.03 0.08 0.08 90 1008.9
20260507010013 10 198 3.2 14.5 0.03 0.05 0.05 90 1008.9
20260507005013 10 191 4.8 14.5 0.03 0.05 0.05 90 1008.9
20260507004012 10 229 4.8 17.7 0.03 0.05 0.05 90 1009.0
20260507003012 10 224 6.4 17.7 0.03 0.05 0.05 90 1009.0
20260507002012 11 215 4.8 20.9 0.03 0.05 0.05 90 1008.9
20260507001013 11 211 6.4 20.9 0.03 0.05 0.05 90 1008.8
20260507000013 11 190 4.8 14.5 0.00 0.05 0.05 90 1008.8
20260506235012 11 194 4.8 12.9 0.03 0.05 0.05 90 1008.8
20260506234012 11 246 3.2 9.7 0.03 0.05 0.05 90 1008.7
20260506233012 11 225 4.8 11.3 0.03 0.05 0.05 90 1008.7
20260506232012 11 200 3.2 11.3 0.03 0.05 0.05 90 1008.8
20260506231012 11 229 3.2 9.7 0.03 0.05 0.05 89 1008.8
20260506230012 11 195 3.2 9.7 0.03 0.05 0.05 89 1008.7
20260506225012 11 181 4.8 11.3 0.00 0.03 0.03 89 1008.5
20260506224012 11 196 4.8 11.3 0.00 0.03 0.03 89 1008.4
20260506223012 11 237 4.8 16.1 0.00 0.03 0.03 89 1008.3
20260506222012 11 237 3.2 9.7 0.00 0.03 0.03 89 1008.2
20260506221012 11 234 1.6 9.7 0.00 0.03 0.03 89 1008.0
20260506220012 11 219 3.2 12.9 0.00 0.03 0.03 89 1008.0
20260506215011 11 240 4.8 14.5 0.00 0.18 0.18 89 1008.0
20260506214012 11 240 3.2 17.7 0.00 0.18 0.18 89 1008.1
20260506213012 11 205 4.8 14.5 0.00 0.18 0.18 88 1008.1
20260506212011 11 275 4.8 12.9 0.00 0.18 0.18 89 1008.1
20260506211012 12 238 3.2 17.7 0.00 0.18 0.18 88 1008.0
20260506210012 12 246 4.8 14.5 0.00 0.18 0.18 89 1008.0
20260506205011 12 194 1.6 8.0 0.00 0.18 0.18 89 1007.8
20260506204011 12 217 1.6 6.4 0.00 0.18 0.18 88 1007.7
20260506203011 12 224 1.6 6.4 0.00 0.18 0.18 87 1007.6
20260506202011 12 238 1.6 8.0 0.00 0.18 0.18 87 1007.6
20260506201011 12 238 1.6 4.8 0.03 0.18 0.18 86 1007.6
20260506200011 12 211 1.6 6.4 0.03 0.18 0.18 84 1007.3
20260506195012 12 211 3.2 8.0 0.05 0.18 0.18 83 1007.3
20260506194011 12 188 1.6 6.4 0.05 0.18 0.18 82 1007.2
20260506193011 12 217 3.2 8.0 0.13 0.18 0.18 82 1007.2
20260506192011 12 234 3.2 8.0 0.15 0.18 0.18 80 1007.0
20260506191011 13 228 1.6 6.4 0.15 0.15 0.15 79 1006.8
20260506190011 13 246 1.6 11.3 0.15 0.15 0.15 78 1006.7
20260506185011 13 209 1.6 4.8 0.15 0.15 0.15 76 1006.5
20260506184011 13 209 3.2 9.7 0.13 0.13 0.13 74 1006.5
20260506183011 13 235 6.4 12.9 0.05 0.05 0.05 71 1006.3
20260506182011 13 219 6.4 17.7 0.03 0.03 0.03 69 1006.3
20260506181011 13 234 4.8 16.1 0.00 0.00 0.00 70 1006.1
20260506180011 13 216 3.2 12.9 0.00 0.00 0.00 72 1005.9
20260506175011 13 237 3.2 8.0 0.00 0.00 0.00 71 1005.8
20260506174010 13 243 3.2 11.3 0.00 0.00 0.00 70 1005.6
20260506173011 14 269 4.8 6.4 0.00 0.00 0.00 69 1005.4
20260506172011 14 169 1.6 6.4 0.00 0.00 0.00 67 1005.2
20260506171010 14 103 1.6 6.4 0.00 0.00 0.00 63 1005.3
20260506170011 15 123 4.8 12.9 0.00 0.00 0.00 63 1005.2
20260506165010 15 117 4.8 9.7 0.00 0.00 0.00 65 1005.2
20260506164012 15 115 1.6 6.4 0.00 0.00 0.00 65 1005.2
20260506163011 15 115 4.8 16.1 0.00 0.00 0.00 65 1005.4
20260506162010 16 117 4.8 11.3 0.00 0.00 0.00 63 1005.3
20260506161011 16 92 3.2 6.4 0.00 0.00 0.00 63 1005.2
20260506160010 16 92 1.6 6.4 0.00 0.00 0.00 61 1005.1
20260506155010 17 92 4.8 11.3 0.00 0.00 0.00 58 1005.0
20260506154010 17 105 4.8 12.9 0.00 0.00 0.00 56 1005.1
20260506153010 18 82 3.2 14.5 0.00 0.00 0.00 56 1005.2
20260506152011 18 302 3.2 12.9 0.00 0.00 0.00 56 1005.1
20260506151010 18 279 4.8 12.9 0.00 0.00 0.00 55 1004.9
20260506150011 18 261 6.4 16.1 0.00 0.00 0.00 55 1004.9
20260506145010 18 238 8.0 14.5 0.00 0.00 0.00 54 1004.9
20260506144011 18 258 8.0 14.5 0.00 0.00 0.00 53 1004.8
20260506143009 19 267 6.4 14.5 0.00 0.00 0.00 53 1004.8
20260506142011 19 256 4.8 14.5 0.00 0.00 0.00 52 1004.8
20260506141010 19 256 4.8 14.5 0.00 0.00 0.00 52 1004.8
20260506140009 19 150 1.6 4.8 0.00 0.00 0.00 54 1004.8
20260506135009 19 238 4.8 11.3 0.00 0.00 0.00 53 1004.7
20260506134010 19 238 4.8 11.3 0.00 0.00 0.00 53 1004.7
20260506133011 19 240 3.2 11.3 0.00 0.00 0.00 54 1004.8
20260506132010 19 245 3.2 11.3 0.00 0.00 0.00 52 1004.9
20260506131009 20 261 3.2 8.0 0.00 0.00 0.00 53 1005.0
20260506130009 19 251 3.2 9.7 0.00 0.00 0.00 52 1005.3
20260506125010 19 251 3.2 9.7 0.00 0.00 0.00 52 1005.3
20260506124009 19 206 3.2 12.9 0.00 0.00 0.00 52 1005.6
20260506122009 19 194 3.2 12.9 0.00 0.00 0.00 54 1005.6
20260506121014 19 194 3.2 12.9 0.00 0.00 0.00 54 1005.6
20260506120014 19 196 3.2 11.3 0.00 0.00 0.00 53 1005.6
20260506115014 19 223 4.8 14.5 0.00 0.00 0.00 53 1005.7
20260506114014 19 155 3.2 9.7 0.00 0.00 0.00 53 1005.7
20260506113014 19 227 4.8 17.7 0.00 0.00 0.00 58 1005.8
20260506112013 19 136 6.4 12.9 0.00 0.00 0.00 61 1005.8
20260506111014 18 178 4.8 11.3 0.00 0.00 0.00 60 1005.9
20260506110014 18 111 3.2 11.3 0.00 0.00 0.00 63 1005.9
20260506105013 18 147 3.2 9.7 0.00 0.00 0.00 64 1006.0
20260506104013 18 101 4.8 14.5 0.00 0.00 0.00 60 1006.1
20260506103013 18 264 3.2 9.7 0.00 0.00 0.00 66 1006.1
20260506102013 18 206 1.6 8.0 0.00 0.00 0.00 63 1006.1
20260506101013 18 184 3.2 11.3 0.00 0.00 0.00 63 1006.2
20260506100013 18 188 1.6 6.4 0.00 0.00 0.00 67 1006.2
20260506095013 18 140 4.8 11.3 0.00 0.00 0.00 68 1006.2